Aérodrome :
LOGIN :

S'inscrire | Disclaimer

   EN    FR    IT 

 










Légende :    VFR   VFR Marginal   IFR   IFR Intensif   IFR Très Intensif
Visi : 
Plafond : 
>= 8 km
>= 3000ft
5 à 8 km
1000 à 3000 ft
1500m à 5 km
500 à 1000 ft
800 à 1500m
200 à 500 ft
< 800m
< 200 ft
Symboles :   Orages  Brouillard  Fortes neiges  Fortes précipitations  Vent > 20 kt
SIGMETs :   Divers  Orages  Givrage  Turbulence  Onde Orograph.  Cendres Volcan.







- Altitude de l'aérodrome : 989 ft
- Code IATA : TRN


LIMF - Torino Caselle

DERNIER METAR :
  • 221820Z VRB02KT CAVOK 18/10 Q1020

METARs EXPIRÉS :
  • 221750Z 04003KT CAVOK 19/09 Q1020
  • 221720Z 06002KT CAVOK 20/08 Q1020
  • 221650Z 10001KT CAVOK 22/08 Q1020
  • 221620Z VRB02KT CAVOK 22/07 Q1020
  • 221550Z VRB02KT CAVOK 23/06 Q1020

TAF TAF LIMF
Valide du 22 à 18h jusqu'au 23 à 18h UTC


221700Z 2218/2318 VRB05KT CAVOK
Pas de NOTAMs connus pour ce terrain.



MET'MAP, la Météo Aéronautique d'un coup d'oeil ! - Copyright ORBIFLY Décembre 2007 - Disclaimer

ORBIFLY MET'MAP TEAM :

Programmation & Développement : Alexandra Zaïnal
Conception & Développement : Baudouin d'Aumeries
Co-Programmation & Développement : Marc-Olivier Méhu
Soutien technique & logistique : Manuel Goepfert

Contact : metmap@orbifly.com




SOURCES & CREDITS :

   NOAA